DELTA 1 DEB, 12181

Orbit data source: Space-Track

DELTA 1 DEB, 12181 is space debris in SSO originally from a launch on Sun, 05 Mar 1978 UTC launched from the Air Force Western Test Range (AFWTR). Debris objects in space refer to the collection of defunct objects orbiting the Earth. Examples of debris include non-operational satellites, rocket bodies, and fragments generated from explosions, collisions, or faulty payload assembly.

Loading next visibility...
Identifier
12181, 1978-026W
Orbit
SSO
Country
Flag of USUS
Related business
Manufacturer
Unknown
Mission
Spacecraft
Bus & Motor
Unknown
Mass
Unknown
Launch date (UTC)
1978-03-05 (48 years ago)
Launch vehicle
Unknown
Launch site
Air Force Western Test Range (AFWTR)
Object type
Payload
Rocket body
Debris
Shape & HBR
Unknown shape, 0.3 m
Radar Cross Section
Medium (>0.1 m² and <1 m²)

Expand to show TLE details & history
Last TLE update: 3 days ago

TLE from 3 days ago
0 DELTA 1 DEB
1 12181U 78026W   26171.00447268  .00000099  00000-0  57316-4 0  9998
2 12181  98.8458 181.7069 0096947 270.3070  88.7001 14.26725499357034
Epoch: 2026-06-20T00:06Z
TLE epoch observation values (Epoch: 2026-06-20T00:06:26.439Z)
Latitude
-0.00005°
Longitude
-88.12858°
Altitude
804.712 km
Speed
7.452 km/s
True Right ascension
12h 06m 49s
True Declination
0° 00' 00"
Sunlit
Object was in daylight at epoch
Visualization orbit readout
Latitude
Unknown
Longitude
Unknown
Altitude
Unknown
Speed
Unknown
Apparent Right ascension
Unknown
Apparent Declination
Unknown
Sunlit
N/A
Visualization observer readout
Local Sidereal Time
08:10:20
Azimuth
Unknown
Elevation
Unknown
Doppler factor
Unknown
Orbital elements
Apogee altitude
869.441 km
Perigee altitude
730.264 km
Semi-major axis
7,177.99 km
Eccentricity
0.00969
Inclination
98.8458°
RAAN
181.7069°
Arg. of periapsis
270.307°
True anomaly
89.81098°
Mean anomaly
88.7001°
Eccentric anomaly
89.25552°
Mean motion
3.56894 °/min
Orbital period
100.87 mins
BSTAR
0.000057316
Loading maneuver chart data...
Computing Atmospheric mass density...

Documentation

Showing up to 5 results
|